Location: Buch am Rannenberg
(48.6989°N, 10.6399°E)
Time: 01:13:17
(UTC+00:00)

Daily predictions for brighter satellites

Satellite Brightness Start Highest point End
(mag) Time Altitude Azimuth Time Altitude Azimuth Time Altitude Azimuth
STARLINK-1268 3.6 00:04:28 38° ESE 00:04:28 38° ESE 00:06:56 10° ENE
STARLINK-1301 3.7 00:03:56 43° SSE 00:04:21 45° SE 00:08:03 10° ENE
STARLINK-1303 3.7 00:05:53 42° SSE 00:06:13 44° SE 00:09:48 10° ENE
Cosmos 1400 Rocket 3.7 00:02:46 10° N 00:06:48 47° ENE 00:09:10 22° SE
STARLINK-66 2.8 00:07:08 63° S 00:07:22 66° SSE 00:10:33 10° ENE
Cosmos 1570 Rocket 4.0 00:04:53 32° SSW 00:07:26 81° ESE 00:12:44 10° NNE
Cosmos 2227 Rocket 3.2 00:03:30 10° NW 00:08:20 29° WSW 00:10:10 24° SW
Cosmos 1709 Rocket 3.9 00:05:05 28° S 00:08:29 89° E 00:14:44 10° N
Cosmos 1763 Rocket 3.6 00:05:57 28° SW 00:08:37 64° WNW 00:13:40 10° NNE
STARLINK-1316 3.3 00:09:23 44° SE 00:09:23 44° SE 00:12:09 10° ENE
STARLINK-1312 3.6 00:09:12 43° S 00:09:41 46° SE 00:13:19 10° ENE
STARLINK-1257 3.3 00:10:14 45° SE 00:10:14 45° SE 00:13:03 10° ENE
STARLINK-1256 3.2 00:11:11 46° SE 00:11:11 46° SE 00:14:00 10° ENE
STARLINK-58 3.8 00:11:42 34° SE 00:11:42 34° SE 00:14:15 10° ENE
STARLINK-1213 3.2 00:12:02 47° SE 00:12:02 47° SE 00:14:54 10° ENE
STARLINK-52 4.1 00:09:27 10° WNW 00:12:33 45° NNE 00:15:40 10° E
STARLINK-1263 3.2 00:12:53 48° SE 00:12:53 48° SE 00:15:48 10° ENE
Cosmos 2084 Rocket 3.6 00:08:35 10° NW 00:12:59 60° SW 00:14:58 31° SSE
STARLINK-1259 3.1 00:13:47 49° SE 00:13:47 49° SE 00:16:44 10° ENE
STARLINK-1265 3.1 00:14:10 50° SE 00:14:10 50° SE 00:17:10 10° ENE
STARLINK-1285 3.1 00:14:38 50° SE 00:14:38 50° SE 00:17:36 10° ENE
Cosmos 2298 Rocket 4.2 00:10:26 10° NNW 00:15:46 74° ENE 00:19:50 18° SSE
STARLINK-1296 3.0 00:16:22 52° SSE 00:16:22 52° SSE 00:19:26 10° ENE
SL-16 R/B 3.2 00:10:31 10° SE 00:16:28 53° ENE 00:22:27 10° N
STARLINK-1260 3.0 00:17:14 53° SSE 00:17:16 53° SSE 00:20:20 10° ENE
Cosmos 1758 Rocket 3.5 00:15:28 35° SSW 00:17:17 78° W 00:21:44 10° N
STARLINK-1318 2.9 00:18:06 54° SSE 00:18:11 54° SSE 00:21:15 10° ENE
STARLINK-75 2.8 00:18:02 55° SSW 00:18:35 72° SSE 00:21:49 10° ENE
STARLINK-1275 2.9 00:18:59 55° SSE 00:19:04 55° SSE 00:22:09 10° ENE
STARLINK-48 4.3 00:19:05 31° SSE 00:19:26 31° SE 00:22:55 10° ENE
STARLINK-1309 2.9 00:19:50 55° SSE 00:19:57 56° SSE 00:23:02 10° ENE
STARLINK-1282 2.9 00:20:42 56° SSE 00:20:51 57° SSE 00:23:55 10° ENE
STARLINK-1283 3.6 00:20:03 37° SSW 00:21:28 61° SSE 00:25:33 10° ENE
IRAS Rocket 4.2 00:18:06 23° SSE 00:21:40 86° WSW 00:27:13 10° NNW
STARLINK-1313 2.8 00:21:38 59° S 00:21:57 64° SSE 00:25:03 10° ENE
STARLINK-80 3.4 00:21:07 42° SSW 00:22:08 59° SSE 00:25:53 10° ENE
CZ-4 R/B 4.3 00:17:52 10° N 00:22:27 51° WNW 00:24:50 26° SW
STARLINK-1279 2.8 00:22:33 59° S 00:22:53 65° SSE 00:25:59 10° ENE
STARLINK-1298 2.8 00:23:16 57° S 00:23:31 59° SSE 00:26:36 10° ENE
STARLINK-1293 2.8 00:24:09 57° S 00:24:26 60° SSE 00:27:32 10° ENE
SL-16 R/B 3.6 00:22:44 16° SSE 00:26:07 27° ESE 00:30:49 10° NE
STARLINK-1255 2.8 00:25:54 56° S 00:26:15 62° SSE 00:29:21 10° ENE
Cosmos 2208 Rocket 4.0 00:23:37 29° SSW 00:26:26 85° WNW 00:31:51 10° NNE
STARLINK-22 2.8 00:26:16 52° SSW 00:26:50 68° SSE 00:30:02 10° ENE
STARLINK-1297 3.3 00:26:32 43° SSW 00:27:25 59° SSE 00:30:59 10° ENE
STARLINK 1040 3.6 00:26:21 24° WNW 00:27:28 41° NNW 00:29:56 10° ENE
STARLINK-1444 4.1 00:25:58 10° WNW 00:26:52 21° NW 00:26:52 21° NW
Cosmos 2285 Rocket 4.3 00:22:15 10° NNW 00:28:24 52° WSW 00:31:55 25° S
STARLINK-1452 4.4 00:26:36 10° WNW 00:27:18 18° WNW 00:27:18 18° WNW
STARLINK-1311 2.6 00:28:27 62° SSW 00:28:49 75° SSE 00:31:46 10° ENE
CZ-2D R/B 3.0 00:26:41 10° NNE 00:31:36 40° E 00:35:02 18° SSE
MOZ.5/SAFIR/RUBIN 5/SL-8 3.9 00:29:15 20° SSE 00:32:26 72° ENE 00:37:05 10° N
Cosmos-2242 3.2 00:28:32 10° NNW 00:32:43 54° W 00:34:23 32° SSW
USA 81 4.3 00:30:17 27° SSW 00:33:02 57° W 00:38:16 10° N
Meteor 2-10 Rocket 4.2 00:28:24 10° NNW 00:33:07 38° W 00:35:15 26° SW
USA 215 3.5 00:28:07 12° SSE 00:33:53 47° SW 00:40:11 10° WNW
Cosmos 2221 3.8 00:31:25 10° N 00:35:30 38° ENE 00:39:28 11° SE
Cosmos 1953 Rocket 3.5 00:33:32 31° S 00:35:39 89° WNW 00:40:03 10° N
STARLINK-42 2.8 00:36:26 35° WSW 00:37:35 82° NNW 00:40:44 10° ENE
BREEZE-M R/B 3.0 00:31:48 10° W 00:37:38 78° N 00:40:44 10° E
STARLINK-1029 3.2 00:39:04 43° S 00:39:26 46° SSE 00:42:30 10° ENE
GP-B 3.2 00:35:58 10° N 00:40:26 75° E 00:42:59 25° S
STARLINK-34 2.8 00:40:02 50° SSW 00:40:32 60° SSE 00:43:35 10° ENE
STARLINK-60 2.7 00:37:28 10° WNW 00:40:40 79° SSW 00:43:51 10° ESE
FALCON 9 DEB 4.1 00:37:37 10° WNW 00:40:59 49° NNE 00:44:21 10° E
STARLINK-41 2.8 00:40:11 35° WSW 00:41:19 81° NNW 00:44:23 10° ENE
CZ-4C R/B 3.7 00:38:35 20° SSE 00:41:37 75° ENE 00:46:04 10° N
Cosmos 1315 Rocket 3.9 00:38:36 10° N 00:42:21 41° ENE 00:45:45 12° SE
Cosmos 1842 Rocket 4.2 00:38:07 10° N 00:42:32 54° ENE 00:46:04 15° SSE
STARLINK-1272 3.1 00:42:02 33° SW 00:43:28 78° SSE 00:47:01 10° ENE
Cosmos 540 Rocket 3.7 00:41:07 25° SW 00:44:06 63° WNW 00:49:13 10° NNE
STARLINK-62 2.8 00:43:45 47° SSW 00:44:23 64° SSE 00:47:26 10° ENE
Helios 1B rocket 3.8 00:44:36 10° N 00:48:11 29° WNW 00:50:24 18° WSW
Cosmos 2360 Rocket 4.2 00:44:49 10° SE 00:48:33 18° E 00:52:18 10° ENE
STARLINK-1307 3.2 00:46:48 28° WSW 00:48:38 81° SSE 00:52:21 10° ENE
STARLINK-1290 3.2 00:50:11 26° WSW 00:52:08 84° SSE 00:55:53 10° ENE
Cosmos 1980 Rocket 2.4 00:51:50 21° SW 00:55:34 64° WNW 01:01:13 10° NNE
Cosmos 2074 Rocket 4.0 00:51:22 20° S 00:55:51 84° E 01:02:10 10° N
Meteor 1-29 4.4 00:53:57 10° N 00:56:49 26° WNW 00:58:11 20° WSW
STARLINK-1306 4.5 00:57:23 26° S 00:59:00 36° SE 01:02:51 10° ENE
STARLINK-1317 3.4 00:56:33 21° WSW 00:59:07 86° NNW 01:03:03 10° ENE
Cosmos 1455 4.0 00:56:38 10° NW 00:59:10 17° W 01:00:05 16° WSW
CZ-4B R/B 4.2 00:55:23 10° NNE 01:00:31 51° E 01:04:34 16° S
STARLINK-55 3.5 01:00:33 15° W 01:03:02 55° NNW 01:06:12 10° ENE
STARLINK-1274 3.2 01:00:56 21° WSW 01:03:08 82° NNW 01:06:42 10° ENE
STARLINK-1262 4.4 01:01:53 25° S 01:03:33 36° SE 01:07:21 10° ENE
STARLINK-43 4.3 01:00:55 10° W 01:04:30 47° N 01:08:04 10° ENE
OPS 8737 4.5 01:01:50 10° NW 01:05:06 77° SW 01:09:27 10° SE
STARLINK-1291 3.4 01:04:15 19° WSW 01:06:50 80° NNW 01:10:35 10° ENE
Meteor 1-11 4.3 01:03:54 22° SSW 01:07:35 66° WNW 01:13:09 10° N
STARLINK-1300 4.3 01:06:40 25° SSW 01:08:29 39° SE 01:12:22 10° ENE
ADEOS II 3.3 01:04:49 10° NNE 01:09:39 35° E 01:14:26 10° SSE
STARLINK-1264 3.4 01:07:26 18° WSW 01:10:10 77° NNW 01:13:55 10° ENE
Cosmos 2263 Rocket 2.2 01:05:15 10° NNW 01:10:47 62° WSW 01:15:58 11° S
IRS-1D 4.3 01:07:54 10° NNE 01:13:00 46° E 01:17:31 12° S
STARLINK-1295 4.2 01:11:26 24° SSW 01:13:26 42° SE 01:17:21 10° ENE
STARLINK-29 2.8 01:10:14 10° WNW 01:13:27 82° SSW 01:16:38 10° ESE
STARLINK-1267 3.5 01:10:40 16° WSW 01:13:31 74° NNW 01:17:17 10° ENE
NOSS 2-1 (C) 3.2 01:12:04 26° SSW 01:13:42 55° SE 01:17:15 10° NE
STARLINK-28 3.8 01:11:34 11° W 01:14:36 48° NNW 01:17:44 10° ENE
AQUA 4.1 01:10:00 10° NNE 01:14:45 65° ESE 01:18:24 17° S
UNK 3.8 01:11:40 19° S 01:14:53 62° WSW 01:19:27 10° NNW
STARLINK-1379 4.5 01:10:58 10° WNW 01:14:54 51° NNE 01:18:51 10° E
SL-4 R/B 2.4 01:10:17 10° WNW 01:15:01 54° SSW 01:19:35 10° SE
STARLINK-64 3.3 01:14:12 25° SW 01:16:04 63° SSE 01:19:38 10° ENE
USA 229 DEB 3.9 01:09:25 10° NW 01:16:37 66° SW 01:24:09 10° SSE
USA 229 3.9 01:09:32 10° NW 01:16:44 67° SW 01:24:15 10° SSE
NOSS 3-1 (C) 4.1 01:10:05 10° NW 01:17:29 63° SW 01:25:57 10° SSE
STARLINK-1287 4.1 01:16:12 23° SSW 01:18:23 45° SE 01:22:21 10° ENE
NOSS 2-1 (D) 3.1 01:16:50 25° SSW 01:18:36 63° SE 01:22:12 10° NE
NPP 3.7 01:13:17 10° NNE 01:18:43 85° ESE 01:22:54 17° SSW
STARLINK-1329 4.4 01:14:46 10° WNW 01:18:44 52° NNE 01:22:41 10° E
ARIANE 5 R/B 4.2 01:15:08 10° NE 01:19:19 26° E 01:23:26 10° SSE
STARLINK-1207 3.6 01:17:10 14° WSW 01:20:19 69° NNW 01:24:04 10° ENE
Cosmos 2184 Rocket 4.1 01:16:26 19° SSW 01:21:02 69° WNW 01:27:12 10° N
CZ-4C R/B 3.8 01:18:14 10° W 01:23:09 33° NNW 01:28:56 10° NE
STARLINK-1362 4.4 01:19:18 10° WNW 01:23:17 53° NNE 01:27:16 10° E
STARLINK-1266 3.6 01:20:25 13° WSW 01:23:43 67° NNW 01:27:28 10° ENE
BREEZE-M DEB (TANK) 1.6 01:23:14 32° WSW 01:23:59 67° SSE 01:26:56 10° E
STARLINK-33 3.9 01:21:47 10° W 01:24:48 45° NNW 01:27:50 10° ENE
Cosmos 1892 3.2 01:21:53 15° S 01:24:49 54° E 01:28:33 10° NNE
NOSS 3-1 (A) 4.0 01:18:14 10° NW 01:25:43 78° SW 01:34:20 10° SSE
STARLINK-1299 3.8 01:24:05 20° SW 01:26:49 59° SSE 01:31:01 10° ENE
STARLINK-1284 3.7 01:23:40 12° WSW 01:27:07 65° NNW 01:30:52 10° ENE
STARLINK-1373 4.3 01:23:50 10° WNW 01:27:49 55° NNE 01:31:47 10° E
STARLINK-1320 3.6 01:24:58 10° WNW 01:28:03 55° NNE 01:31:08 10° E
STARLINK-1302 3.9 01:25:46 21° SW 01:28:18 52° SE 01:32:20 10° ENE
STARLINK-26 4.1 01:24:57 10° W 01:28:18 47° NNW 01:31:39 10° ENE
STARLINK-1322 3.6 01:25:19 10° WNW 01:28:24 56° NNE 01:31:29 10° E
BREEZE-M DEB (TANK) 1.1 01:26:07 10° W 01:28:31 78° NNE 01:31:09 10° E
STARLINK-1324 3.6 01:25:38 10° WNW 01:28:43 56° NNE 01:31:48 10° E
STARLINK-1294 3.6 01:25:56 10° WNW 01:29:02 56° NNE 01:32:09 10° E
Cosmos 1610 Rocket 4.5 01:24:10 16° S 01:29:18 85° W 01:35:33 10° N
STARLINK-1261 3.6 01:26:19 10° WNW 01:29:25 56° NNE 01:32:30 10° E
STARLINK-1325 3.6 01:26:41 10° WNW 01:29:46 56° NNE 01:32:51 10° E
Cosmos 1869 3.2 01:26:13 10° NNW 01:30:04 64° W 01:33:00 16° S
STARLINK-1333 3.6 01:27:03 10° WNW 01:30:08 57° NNE 01:33:13 10° E
STARLINK-1334 3.6 01:27:20 10° WNW 01:30:25 57° NNE 01:33:30 10° E
STARLINK-1258 3.7 01:26:59 11° W 01:30:34 62° NNW 01:34:18 10° ENE
STARLINK-1326 3.6 01:27:39 10° WNW 01:30:45 57° NNE 01:33:49 10° E
STARLINK-1323 3.5 01:28:03 10° WNW 01:31:08 57° NNE 01:34:13 10° E
STARLINK-1349 3.5 01:28:20 10° WNW 01:31:26 57° NNE 01:34:30 10° E
STARLINK-1336 3.5 01:28:39 10° WNW 01:31:45 58° NNE 01:34:50 10° E
STARLINK-1331 3.5 01:29:02 10° WNW 01:32:08 58° NNE 01:35:13 10° E
STARLINK-1390 4.3 01:28:26 10° WNW 01:32:25 56° NNE 01:36:26 10° E
STARLINK-1344 3.5 01:29:21 10° WNW 01:32:26 58° NNE 01:35:31 10° E
STARLINK-1343 3.5 01:29:43 10° WNW 01:32:49 58° NNE 01:35:54 10° E
STARLINK-1346 3.5 01:30:00 10° WNW 01:33:07 59° NNE 01:36:14 10° E
STARLINK-1273 3.8 01:30:32 20° SW 01:33:15 56° SSE 01:37:19 10° ENE
STARLINK-1328 3.5 01:30:26 10° WNW 01:33:32 59° NNE 01:36:38 10° E
STARLINK-1354 3.5 01:30:44 10° WNW 01:33:50 59° NNE 01:36:55 10° E
STARLINK-1292 3.8 01:30:18 10° W 01:34:00 60° NNW 01:37:45 10° ENE
STARLINK-1347 3.5 01:31:01 10° WNW 01:34:07 59° NNE 01:37:12 10° E
Cosmos 2322 Rocket 2.3 01:29:42 16° SSW 01:34:11 73° ESE 01:39:48 10° NNE
STARLINK-1357 3.5 01:31:27 10° WNW 01:34:33 60° NNE 01:37:38 10° E
STARLINK-1335 3.5 01:31:44 10° WNW 01:34:50 60° NNE 01:37:55 10° E
STARLINK-1327 3.4 01:32:05 10° WNW 01:35:11 60° NNE 01:38:16 10° E
STARLINK-1340 3.4 01:32:23 10° WNW 01:35:29 60° NNE 01:38:35 10° ESE
STARLINK-1356 3.4 01:32:46 10° WNW 01:35:52 60° NNE 01:38:57 10° ESE
In-Cosmos 22 Rocket 4.3 01:31:02 13° S 01:35:59 80° E 01:41:28 10° NNE
STARLINK-1345 3.4 01:33:05 10° WNW 01:36:10 61° NNE 01:39:16 10° ESE
STARLINK-1355 3.4 01:33:25 10° WNW 01:36:32 61° NNE 01:39:38 10° ESE
STARLINK-1321 3.4 01:33:46 10° WNW 01:36:53 61° NNE 01:39:58 10° ESE
STARLINK-1358 3.4 01:34:10 10° WNW 01:37:16 62° NNE 01:40:22 10° ESE
STARLINK-1332 3.4 01:34:27 10° WNW 01:37:33 62° NNE 01:40:39 10° ESE
STARLINK-1348 3.4 01:34:47 10° WNW 01:37:53 62° NNE 01:40:59 10° ESE
STARLINK-1288 3.8 01:35:19 18° SW 01:38:13 60° SSE 01:42:19 10° ENE
STARLINK-1330 3.4 01:35:07 10° WNW 01:38:13 62° NNE 01:41:19 10° ESE
STARLINK-61 3.9 01:35:51 19° SSW 01:38:20 46° SE 01:42:06 10° ENE
STARLINK-1365 4.2 01:34:24 10° WNW 01:38:27 60° NNE 01:42:29 10° E
STARLINK-1363 3.4 01:35:27 10° WNW 01:38:33 62° NNE 01:41:39 10° ESE
STARLINK-1337 3.4 01:35:49 10° WNW 01:38:56 63° NNE 01:42:02 10° ESE
STARLINK-1342 3.4 01:36:08 10° WNW 01:39:15 63° NNE 01:42:21 10° ESE
STARLINK-1364 3.3 01:36:29 10° WNW 01:39:35 63° NNE 01:42:41 10° ESE
STARLINK-1268 3.8 01:36:41 10° W 01:39:42 47° NNW 01:42:43 10° ENE
STARLINK-1376 3.3 01:36:49 10° WNW 01:39:56 64° NNE 01:43:01 10° ESE
STARLINK-1360 3.3 01:37:09 10° WNW 01:40:16 64° NNE 01:43:22 10° ESE
Resurs 1-4 Rocket 2.4 01:35:24 10° N 01:40:36 56° WNW 01:44:54 15° SW
STARLINK-1361 3.3 01:37:30 10° WNW 01:40:36 64° NNE 01:43:43 10° ESE
STARLINK-1289 3.9 01:37:11 10° W 01:40:53 57° NNW 01:44:36 10° ENE
STARLINK-1367 3.3 01:37:45 10° WNW 01:40:55 65° NNE 01:44:02 10° ESE
STARLINK-1366 3.3 01:38:09 10° WNW 01:41:15 65° NNE 01:44:22 10° ESE
STARLINK-1301 4.0 01:39:05 10° W 01:42:53 56° NNW 01:46:41 10° ENE
STARLINK-1308 3.7 01:40:08 17° SW 01:43:14 65° SSE 01:47:21 10° ENE
Cosmos 1076 Rocket 3.5 01:39:51 14° S 01:43:36 88° E 01:48:00 10° N
STARLINK-66 4.2 01:40:34 10° W 01:43:37 41° N 01:46:42 10° ENE
STARLINK-1303 4.0 01:40:41 10° W 01:44:23 55° NNW 01:48:06 10° ENE
Cosmos 1125 Rocket 4.1 01:39:53 10° NW 01:44:38 36° WSW 01:48:54 12° SSW
STARLINK-1316 3.9 01:41:57 10° W 01:44:58 46° NNW 01:48:01 10° ENE
Cosmos 2151 4.1 01:41:25 10° SSE 01:45:25 40° E 01:49:28 10° NNE
STARLINK-1257 3.9 01:42:51 10° W 01:45:52 45° NNW 01:48:54 10° ENE
STARLINK-1256 3.9 01:43:49 10° W 01:46:51 45° NNW 01:49:52 10° ENE
STARLINK-58 3.6 01:44:07 10° W 01:47:15 53° NNW 01:50:23 10° ENE
H-2A R/B 3.7 01:43:24 10° SE 01:47:30 38° ENE 01:51:41 10° N
STARLINK-1213 3.9 01:44:42 10° W 01:47:44 44° NNW 01:50:45 10° ENE
STARLINK-1312 4.0 01:44:11 10° W 01:47:53 54° NNW 01:51:36 10° ENE
STARLINK-1338 4.0 01:44:37 10° WNW 01:48:36 64° NNE 01:52:33 10° E
STARLINK-1263 3.9 01:45:36 10° W 01:48:37 44° NNW 01:51:38 10° ENE
STARLINK-52 3.0 01:45:36 10° WNW 01:48:44 50° SSW 01:51:51 10° SE
STARLINK-1259 3.9 01:46:33 10° W 01:49:34 44° NNW 01:52:35 10° ENE
STARLINK-1265 3.9 01:46:55 10° W 01:49:57 44° NNW 01:53:01 10° ENE
STARLINK-1285 3.9 01:47:26 10° W 01:50:26 44° NNW 01:53:27 10° ENE
STARLINK-1296 4.0 01:49:15 10° W 01:52:15 43° NNW 01:55:16 10° ENE
Cosmos 1408 2.8 01:49:31 11° S 01:53:02 70° E 01:56:43 10° NNE
STARLINK-1304 3.6 01:49:41 14° SW 01:53:09 73° SSE 01:57:18 10° ENE
STARLINK-1260 4.0 01:50:09 10° W 01:53:09 43° NNW 01:56:11 10° ENE
STARLINK-1318 4.0 01:51:03 10° W 01:54:04 43° NNW 01:57:05 10° ENE
STARLINK-75 4.2 01:51:47 10° W 01:54:53 40° N 01:57:58 10° ENE
STARLINK-1275 4.0 01:51:59 10° W 01:54:59 42° NNW 01:58:00 10° ENE
Cosmos 2154 Rocket 4.2 01:49:51 13° SSW 01:55:23 59° WNW 02:01:33 10° N
STARLINK-1309 4.0 01:52:53 10° W 01:55:52 42° NNW 01:58:52 10° ENE
STARLINK-1282 4.0 01:53:46 10° W 01:56:46 42° NNW 01:59:46 10° ENE
GEOS 3 Rocket 3.8 01:51:50 10° SSE 01:56:51 49° SW 02:01:59 10° NW
STARLINK-1371 3.9 01:52:53 10° WNW 01:56:51 69° NNE 02:00:47 10° ESE
STARLINK-48 3.7 01:53:58 10° WSW 01:57:52 69° NNW 02:01:45 10° ENE
STARLINK-1313 4.1 01:54:55 10° W 01:57:55 40° N 02:00:54 10° ENE
STARLINK-1279 4.2 01:55:52 10° W 01:58:51 40° N 02:01:49 10° ENE
STARLINK-1278 3.7 01:55:21 12° WSW 01:59:19 86° SSE 02:03:36 10° ENE
STARLINK-1298 4.1 01:56:27 10° W 01:59:26 41° NNW 02:02:26 10° ENE
Cosmos 1825 2.7 01:55:58 10° S 01:59:37 55° E 02:03:20 10° NNE
SL-16 R/B 3.4 01:55:29 12° SSW 02:00:20 31° W 02:05:47 10° NNW
STARLINK-1293 4.1 01:57:24 10° W 02:00:23 41° N 02:03:22 10° ENE
STARLINK-80 4.3 01:56:46 10° W 02:00:29 49° NNW 02:04:12 10° ENE
STARLINK-1283 4.4 01:57:05 10° W 02:01:07 52° NNW 02:05:09 10° ENE
STARLINK-1280 3.7 01:57:08 11° WSW 02:01:10 88° SSE 02:05:27 10° ENE
STARLINK-1341 3.8 01:57:16 10° WNW 02:01:15 72° NNE 02:05:13 10° ESE
STARLINK 1040 4.4 01:59:27 10° WNW 02:01:46 29° N 02:04:05 10° ENE
SL-08 R/B 3.2 01:57:19 10° SSE 02:01:57 85° WSW 02:06:36 10° NNW
STARLINK-69 4.4 01:59:20 13° SSW 02:02:02 32° SE 02:05:16 10° ENE
STARLINK-1255 4.1 01:59:12 10° W 02:02:12 40° N 02:05:11 10° ENE
STARLINK-22 4.2 02:00:01 10° W 02:03:06 40° N 02:06:10 10° ENE
STARLINK-21 4.4 02:00:55 13° SSW 02:03:41 31° SE 02:06:55 10° ENE
IRS-P3 4.2 01:58:45 10° NNE 02:04:08 87° ESE 02:09:28 10° SSW
STARLINK-1311 4.2 02:01:28 10° WNW 02:04:14 36° N 02:07:02 10° ENE
STARLINK-1297 4.2 02:01:38 10° W 02:05:09 47° NNW 02:08:40 10° ENE
Cosmos 1844 Rocket 2.8 01:59:45 10° NNW 02:05:24 85° ENE 02:10:59 10° SSE
STARLINK-45 4.3 02:02:35 13° SSW 02:05:25 34° SE 02:08:45 10° ENE
STARLINK-1374 3.8 02:01:45 10° WNW 02:05:45 75° NNE 02:09:45 10° ESE
NOSS 2-1 (E) 3.6 02:04:58 11° WSW 02:08:04 50° NW 02:11:50 10° NE
STARLINK-76 4.3 02:05:36 12° SSW 02:08:32 34° SE 02:11:50 10° ENE
STARLINK-70 4.2 02:05:59 12° SSW 02:08:59 36° SE 02:12:22 10° ENE
STARLINK-1286 3.6 02:05:37 10° WSW 02:09:48 90° S 02:14:00 10° ENE
SL-16 R/B 2.6 02:04:36 11° SW 02:09:53 56° WNW 02:15:29 10° NNE
STARLINK-1339 3.7 02:05:54 10° WNW 02:09:53 78° NNE 02:13:51 10° ESE
STARLINK-23 4.3 02:07:11 12° SSW 02:10:10 35° SE 02:13:30 10° ENE
CZ-2D R/B 3.1 02:06:56 10° N 02:11:35 33° WNW 02:16:10 10° SW
STARLINK-32 4.2 02:08:37 12° SSW 02:11:37 35° SE 02:14:54 10° ENE
Cosmos 2221 3.9 02:09:23 10° NW 02:12:52 23° W 02:16:17 10° SW
STARLINK-1281 3.6 02:08:53 10° WSW 02:13:02 89° NW 02:17:13 10° ENE
STARLINK-40 4.2 02:10:18 12° SSW 02:13:24 36° SE 02:16:46 10° ENE
STARLINK-42 4.4 02:10:41 10° WNW 02:13:37 36° N 02:16:33 10° ENE
STARLINK-1377 3.6 02:10:26 10° WNW 02:14:28 82° NNE 02:18:28 10° ESE
COSMOS 2428 4.4 02:09:48 10° SSE 02:14:34 29° ESE 02:19:21 10° NE
STARLINK-44 4.1 02:11:49 11° SSW 02:14:58 37° SE 02:18:21 10° ENE
STARLINK-1029 3.8 02:12:20 10° W 02:15:24 46° NNW 02:18:29 10° ENE
CZ-4C R/B 4.0 02:11:55 10° SSE 02:15:27 52° ENE 02:19:00 10° N
STARLINK-34 4.1 02:13:21 10° W 02:16:17 40° NNW 02:19:14 10° ENE
Cosmos 773 Rocket 4.2 02:11:30 10° SSW 02:16:45 76° ESE 02:22:03 10° NNE
STARLINK-37 4.0 02:13:33 11° SW 02:16:46 41° SE 02:20:13 10° ENE
STARLINK-41 4.4 02:14:19 10° WNW 02:17:10 35° N 02:20:01 10° ENE
STARLINK-1310 3.7 02:13:52 10° WSW 02:18:02 85° NNW 02:22:12 10° ENE
FALCON 9 DEB 3.3 02:14:42 10° WNW 02:18:03 48° SSW 02:21:24 10° SE
STARLINK-36 4.1 02:14:56 11° SSW 02:18:12 39° SE 02:21:37 10° ENE
Cosmos 1315 Rocket 4.5 02:15:55 10° NW 02:18:37 18° W 02:21:17 10° SW
STARLINK-1353 3.6 02:14:47 10° WNW 02:18:49 85° NNE 02:22:50 10° ESE
STARLINK-62 4.1 02:17:14 10° W 02:20:07 39° N 02:23:01 10° ENE
STARLINK-1272 4.4 02:17:33 10° W 02:20:57 42° N 02:24:21 10° ENE
CBERS-1 4.5 02:16:24 10° N 02:21:20 49° WNW 02:26:16 10° SW
STARLINK-63 3.9 02:18:10 10° SW 02:21:33 43° SE 02:25:00 10° ENE
STARLINK-35 3.9 02:19:32 10° SW 02:22:54 42° SE 02:26:19 10° ENE
STARLINK-1319 3.7 02:18:51 10° WSW 02:23:00 81° NNW 02:27:10 10° ENE
STARLINK-1375 3.6 02:19:09 10° WNW 02:23:11 89° NNE 02:27:13 10° ESE
STARLINK-51 3.9 02:21:16 10° SW 02:24:42 44° SE 02:28:10 10° ENE
Cosmos 2366 rocket 4.1 02:19:33 10° S 02:25:49 84° E 02:32:11 10° N
STARLINK-30 3.9 02:22:54 10° SW 02:26:22 45° SE 02:29:51 10° ENE
STARLINK-1307 4.5 02:23:18 10° W 02:26:53 44° N 02:30:28 10° ENE
Cosmos 2278 Rocket 4.2 02:21:57 10° NNW 02:27:10 35° NE 02:32:19 10° ESE
STARLINK-1350 3.5 02:23:30 10° WNW 02:27:32 87° SSW 02:31:34 10° ESE
STARLINK-72 3.8 02:24:20 10° SW 02:27:45 46° SE 02:31:12 10° ENE
STARLINK-1277 3.8 02:23:50 10° WSW 02:27:59 77° NNW 02:32:09 10° ENE
Shenzhou-11 Module 3.1 02:26:54 10° SW 02:28:43 19° S 02:30:34 10° SE
Cosmos 1933 3.7 02:26:16 10° N 02:30:19 68° ENE 02:34:19 10° SSE
STARLINK-1290 4.5 02:26:50 10° W 02:30:25 43° N 02:34:00 10° ENE
STARLINK-1021 4.4 02:26:32 10° SSW 02:30:26 40° SE 02:34:20 10° ENE
Cosmos 2058 4.1 02:27:19 10° SW 02:30:59 29° WNW 02:34:42 10° N
STARLINK-59 3.7 02:27:37 10° SW 02:31:05 51° SSE 02:34:34 10° ENE
STARLINK-1352 3.5 02:27:41 10° WNW 02:31:42 83° SSW 02:35:42 10° ESE
Cosmos 2360 Rocket 2.3 02:26:14 10° SSW 02:31:51 79° WNW 02:37:32 10° NNE
STARLINK-1010 4.3 02:28:38 10° SW 02:32:40 44° SE 02:36:43 10° ENE
STARLINK-56 3.7 02:29:20 10° SW 02:32:51 51° SSE 02:36:24 10° ENE
STARLINK-1276 3.8 02:28:51 10° WSW 02:32:59 74° NNW 02:37:09 10° ENE
Cosmos 1328 Rocket 3.7 02:29:27 10° N 02:33:52 82° E 02:38:13 10° SSE
STARLINK-73 3.7 02:30:57 10° SW 02:34:28 52° SSE 02:38:01 10° ENE
STARLINK-1019 4.3 02:31:25 10° SW 02:35:21 44° SE 02:39:18 10° ENE
